Voltar ao catálogo

STARLINK-3624

AtivoComunicaçõesVLEO
NORAD 51773·PAYLOAD·🇺🇸 United States

Lançado Feb 25, 2022 de Vandenberg Space Force Base

Loading…

Próximas Passagens (próximas 24 horas)

TLE

AtualizadoSource: CelesTrak SupGP

Época: Sep 14, 2026, 21:22 UTC

1 51773C 22017F   26257.89076389  .00016072  00000+0  95296-3 0  2573
2 51773  53.1842 208.7453 0002327  80.5335  84.3760 15.10861625    19

Acompanhe STARLINK-3624 em tempo real com AllMySat

Download on the App Store